Time,TemperatureF,DewpointF,PressureIn,WindDirection,WindDirectionDegrees,WindSpeedMPH,WindSpeedGustMPH,Humidity,HourlyPrecipIn,Conditions,Clouds,dailyrainin,SoftwareType,DateUTC
2013-02-08 00:02:00,40.0,-99.9,-100.00,East,89,2.0,2.0,-999,-99.99,,,-99.99,,2013-02-08 07:02:00,
2013-02-08 00:12:00,40.0,-99.9,-100.00,East,89,2.0,2.0,-999,-99.99,,,-99.99,,2013-02-08 07:12:00,
2013-02-08 00:22:00,40.0,-99.9,-100.00,East,89,2.0,2.0,-999,-99.99,,,-99.99,,2013-02-08 07:22:00,
2013-02-08 00:50:00,46.0,-99.9,-100.00,NE,50,2.0,7.0,-999,-99.99,,,-99.99,,2013-02-08 07:50:00,
2013-02-08 01:32:00,46.0,-99.9,-100.00,NE,50,2.0,7.0,-999,-99.99,,,-99.99,,2013-02-08 08:32:00,
2013-02-08 01:42:00,46.0,-99.9,-100.00,NE,50,2.0,7.0,-999,-99.99,,,-99.99,,2013-02-08 08:42:00,
2013-02-08 02:03:00,47.0,-99.9,-100.00,ENE,78,5.0,8.0,-999,-99.99,,,-99.99,,2013-02-08 09:03:00,
2013-02-08 02:11:00,47.0,-99.9,-100.00,ENE,78,5.0,8.0,-999,-99.99,,,-99.99,,2013-02-08 09:11:00,
2013-02-08 02:32:00,46.0,-99.9,-100.00,East,89,5.0,7.0,-999,-99.99,,,-99.99,,2013-02-08 09:32:00,
2013-02-08 02:42:00,46.0,-99.9,-100.00,East,89,5.0,7.0,-999,-99.99,,,-99.99,,2013-02-08 09:42:00,
2013-02-08 04:32:00,46.0,-99.9,-100.00,ENE,76,4.0,8.0,-999,-99.99,,,-99.99,,2013-02-08 11:32:00,
2013-02-08 04:42:00,46.0,-99.9,-100.00,ENE,76,4.0,8.0,-999,-99.99,,,-99.99,,2013-02-08 11:42:00,
2013-02-08 07:00:00,42.0,-99.9,-100.00,ENE,68,3.0,9.0,-999,-99.99,,,-99.99,,2013-02-08 14:00:00,
2013-02-08 07:02:00,43.0,-99.9,-100.00,ENE,76,7.0,11.0,-999,-99.99,,,-99.99,,2013-02-08 14:02:00,
2013-02-08 07:12:00,43.0,-99.9,-100.00,ENE,76,7.0,11.0,-999,-99.99,,,-99.99,,2013-02-08 14:12:00,
2013-02-08 07:22:00,42.0,-99.9,-100.00,East,89,4.0,8.0,-999,-99.99,,,-99.99,,2013-02-08 14:22:00,
2013-02-08 07:33:00,42.0,-99.9,-100.00,ENE,68,3.0,9.0,-999,-99.99,,,-99.99,,2013-02-08 14:33:00,
2013-02-08 07:42:00,42.0,-99.9,-100.00,ENE,68,3.0,9.0,-999,-99.99,,,-99.99,,2013-02-08 14:42:00,
2013-02-08 07:53:00,42.0,-99.9,-100.00,ENE,68,3.0,9.0,-999,-99.99,,,-99.99,,2013-02-08 14:53:00,
2013-02-08 08:50:00,47.0,-99.9,-100.00,East,87,8.0,10.0,-999,-99.99,,,-99.99,,2013-02-08 15:50:00,
2013-02-08 09:33:00,47.0,-99.9,-100.00,East,87,8.0,10.0,-999,-99.99,,,-99.99,,2013-02-08 16:33:00,
2013-02-08 09:42:00,47.0,-99.9,-100.00,East,87,8.0,10.0,-999,-99.99,,,-99.99,,2013-02-08 16:42:00,
2013-02-08 10:10:00,50.0,-99.9,-100.00,ENE,69,5.0,10.0,-999,-99.99,,,-99.99,,2013-02-08 17:10:00,
2013-02-08 10:53:00,50.0,-99.9,-100.00,ENE,69,5.0,10.0,-999,-99.99,,,-99.99,,2013-02-08 17:53:00,
2013-02-08 11:03:00,50.0,-99.9,-100.00,ENE,69,5.0,10.0,-999,-99.99,,,-99.99,,2013-02-08 18:03:00,
2013-02-08 12:10:00,58.0,-99.9,-100.00,East,89,5.0,9.0,-999,-99.99,,,-99.99,,2013-02-08 19:10:00,
2013-02-08 12:53:00,58.0,-99.9,-100.00,East,89,5.0,9.0,-999,-99.99,,,-99.99,,2013-02-08 19:53:00,
2013-02-08 13:02:00,58.0,-99.9,-100.00,East,89,5.0,9.0,-999,-99.99,,,-99.99,,2013-02-08 20:02:00,
2013-02-08 15:52:00,65.0,-99.9,-100.00,East,89,3.0,5.0,-999,-99.99,,,-99.99,,2013-02-08 22:52:00,
2013-02-08 16:02:00,65.0,-99.9,-100.00,East,89,3.0,5.0,-999,-99.99,,,-99.99,,2013-02-08 23:02:00,
2013-02-08 17:02:00,65.0,-99.9,-100.00,East,91,2.0,4.0,-999,-99.99,,,-99.99,,2013-02-09 00:02:00,
2013-02-08 17:12:00,65.0,-99.9,-100.00,East,91,2.0,4.0,-999,-99.99,,,-99.99,,2013-02-09 00:12:00,
2013-02-08 17:22:00,65.0,-99.9,-100.00,East,93,2.0,3.0,-999,-99.99,,,-99.99,,2013-02-09 00:22:00,
2013-02-08 17:32:00,65.0,-99.9,-100.00,East,101,3.0,4.0,-999,-99.99,,,-99.99,,2013-02-09 00:32:00,
2013-02-08 17:42:00,65.0,-99.9,-100.00,East,101,3.0,4.0,-999,-99.99,,,-99.99,,2013-02-09 00:42:00,
2013-02-08 17:52:00,65.0,-99.9,-100.00,East,85,3.0,10.0,-999,-99.99,,,-99.99,,2013-02-09 00:52:00,
2013-02-08 18:02:00,65.0,-99.9,-100.00,East,85,3.0,10.0,-999,-99.99,,,-99.99,,2013-02-09 01:02:00,
2013-02-08 19:20:00,56.0,-99.9,-100.00,South,179,1.0,3.0,-999,-99.99,,,-99.99,,2013-02-09 02:20:00,
2013-02-08 20:02:00,56.0,-99.9,-100.00,South,179,1.0,3.0,-999,-99.99,,,-99.99,,2013-02-09 03:02:00,
2013-02-08 20:11:00,56.0,-99.9,-100.00,South,179,1.0,3.0,-999,-99.99,,,-99.99,,2013-02-09 03:11:00,
2013-02-08 20:30:00,54.0,-99.9,-100.00,ENE,71,5.0,5.0,-999,-99.99,,,-99.99,,2013-02-09 03:30:00,
2013-02-08 21:24:00,54.0,-99.9,-100.00,ENE,71,5.0,5.0,-999,-99.99,,,-99.99,,2013-02-09 04:24:00,
2013-02-08 23:22:00,49.0,-99.9,-100.00,ESE,113,2.0,4.0,-999,-99.99,,,-99.99,,2013-02-09 06:22:00,
2013-02-08 23:32:00,49.0,-99.9,-100.00,ESE,113,2.0,4.0,-999,-99.99,,,-99.99,,2013-02-09 06:32:00,
2013-02-08 23:42:00,49.0,-99.9,-100.00,ESE,113,2.0,4.0,-999,-99.99,,,-99.99,,2013-02-09 06:42:00,